| time (UTC) | temp F | wind direction | speed MPH | gust MPH | rain 1hr in | rain 24hr in | rain mn in | humidity % | barometer mb |
| 20260509204600 | 60 | 16 | 9.0 | 17.0 | 0.00 | 0.00 | 0.00 | 75 | 998.8 |
| 20260509203001 | 59 | 7 | 7.0 | 16.0 | 0.00 | 0.00 | 0.00 | 76 | 998.9 |
| 20260509201559 | 59 | 10 | 9.0 | 15.0 | 0.00 | 0.00 | 0.00 | 77 | 998.6 |
| 20260509194540 | 58 | 31 | 8.0 | 16.0 | 0.00 | 0.00 | 0.00 | 77 | 998.4 |
| 20260509193019 | 58 | 357 | 11.0 | 15.0 | 0.00 | 0.00 | 0.00 | 76 | 998.2 |
| 20260509191551 | 58 | 357 | 10.0 | 20.0 | 0.00 | 0.00 | 0.00 | 73 | 998.4 |
| 20260509190034 | 58 | 343 | 13.0 | 22.0 | 0.00 | 0.00 | 0.00 | 74 | 997.9 |
| 20260509184603 | 58 | 37 | 10.0 | 21.0 | 0.00 | 0.00 | 0.00 | 74 | 998.0 |
| 20260509183057 | 57 | 3 | 8.0 | 17.0 | 0.00 | 0.00 | 0.00 | 78 | 998.0 |
| 20260509181544 | 57 | 354 | 6.0 | 13.0 | 0.00 | 0.00 | 0.00 | 79 | 998.0 |
| 20260509180023 | 58 | 353 | 9.0 | 15.0 | 0.00 | 0.00 | 0.00 | 78 | 997.9 |
| 20260509174514 | 58 | 16 | 8.0 | 14.0 | 0.00 | 0.00 | 0.00 | 80 | 997.8 |
| 20260509173015 | 58 | 8 | 11.0 | 20.0 | 0.00 | 0.00 | 0.00 | 80 | 997.9 |
| 20260509171512 | 58 | 344 | 12.0 | 26.0 | 0.00 | 0.00 | 0.00 | 81 | 998.0 |
| 20260509170011 | 58 | 351 | 14.0 | 22.0 | 0.00 | 0.00 | 0.00 | 80 | 998.0 |
| 20260509164512 | 58 | 358 | 14.0 | 23.0 | 0.00 | 0.00 | 0.00 | 78 | 997.9 |
| 20260509163009 | 58 | 36 | 10.0 | 22.0 | 0.00 | 0.00 | 0.00 | 78 | 997.7 |
| 20260509161509 | 58 | 351 | 12.0 | 20.0 | 0.00 | 0.00 | 0.00 | 77 | 997.7 |
| 20260509160009 | 58 | 22 | 13.0 | 22.0 | 0.00 | 0.00 | 0.00 | 75 | 997.5 |
| 20260509154502 | 58 | 31 | 13.0 | 24.0 | 0.00 | 0.00 | 0.00 | 75 | 997.6 |
| 20260509153003 | 58 | 5 | 14.0 | 22.0 | 0.00 | 0.00 | 0.00 | 75 | 997.7 |
| 20260509151501 | 58 | 351 | 14.0 | 20.0 | 0.00 | 0.00 | 0.00 | 75 | 997.9 |
| 20260509150059 | 58 | 20 | 14.0 | 24.0 | 0.00 | 0.00 | 0.00 | 76 | 998.1 |
| 20260509144559 | 58 | 19 | 13.0 | 22.0 | 0.00 | 0.00 | 0.00 | 77 | 998.0 |
| 20260509143054 | 58 | 9 | 12.0 | 19.0 | 0.00 | 0.00 | 0.00 | 76 | 998.4 |
| 20260509141531 | 58 | 21 | 12.0 | 20.0 | 0.00 | 0.00 | 0.00 | 77 | 998.3 |
| 20260509140016 | 58 | 5 | 14.0 | 21.0 | 0.00 | 0.00 | 0.00 | 78 | 998.5 |
| 20260509134602 | 58 | 359 | 14.0 | 21.0 | 0.00 | 0.00 | 0.00 | 81 | 998.3 |
| 20260509133012 | 58 | 4 | 12.0 | 19.0 | 0.00 | 0.00 | 0.00 | 84 | 998.4 |
| 20260509131548 | 58 | 359 | 12.0 | 21.0 | 0.00 | 0.00 | 0.00 | 85 | 998.3 |
| 20260509124526 | 58 | 17 | 11.0 | 21.0 | 0.00 | 0.00 | 0.00 | 82 | 998.1 |
| 20260509123019 | 58 | 28 | 11.0 | 19.0 | 0.00 | 0.00 | 0.00 | 82 | 998.1 |
| 20260509121557 | 58 | 12 | 11.0 | 20.0 | 0.00 | 0.00 | 0.00 | 81 | 998.3 |
| 20260509120030 | 58 | 44 | 11.0 | 19.0 | 0.00 | 0.00 | 0.00 | 79 | 998.7 |
| 20260509114529 | 58 | 11 | 16.0 | 26.0 | 0.00 | 0.00 | 0.00 | 81 | 998.8 |
| 20260509113001 | 58 | 20 | 18.0 | 28.0 | 0.00 | 0.00 | 0.00 | 82 | 998.8 |
| 20260509111523 | 58 | 24 | 15.0 | 25.0 | 0.00 | 0.00 | 0.00 | 79 | 998.8 |
| 20260509110018 | 59 | 339 | 15.0 | 31.0 | 0.00 | 0.00 | 0.00 | 76 | 998.9 |
| 20260509104549 | 59 | 344 | 15.0 | 30.0 | 0.00 | 0.00 | 0.00 | 77 | 998.9 |
| 20260509103117 | 58 | 31 | 16.0 | 27.0 | 0.00 | 0.00 | 0.00 | 79 | 998.9 |
| 20260509100028 | 58 | 23 | 15.0 | 33.0 | 0.00 | 0.00 | 0.00 | 78 | 999.0 |
| 20260509093030 | 59 | 357 | 19.0 | 28.0 | 0.00 | 0.09 | 0.00 | 79 | 999.0 |
| 20260509091521 | 59 | 8 | 15.0 | 26.0 | 0.00 | 0.09 | 0.00 | 79 | 998.8 |
| 20260509090018 | 59 | 20 | 15.0 | 23.0 | 0.00 | 0.09 | 0.00 | 78 | 998.8 |
| 20260509084524 | 59 | 354 | 16.0 | 24.0 | 0.00 | 0.25 | 0.00 | 80 | 999.0 |
| 20260509083014 | 59 | 360 | 13.0 | 26.0 | 0.00 | 0.25 | 0.00 | 78 | 998.8 |
| 20260509081526 | 59 | 339 | 15.0 | 21.0 | 0.00 | 0.25 | 0.00 | 79 | 999.0 |
| 20260509080059 | 59 | 19 | 12.0 | 35.0 | 0.00 | 0.25 | 0.00 | 78 | 998.9 |
| 20260509074542 | 59 | 29 | 18.0 | 34.0 | 0.00 | 0.27 | 0.00 | 81 | 998.4 |
| 20260509073009 | 59 | 322 | 17.0 | 28.0 | 0.00 | 0.27 | 0.00 | 82 | 998.5 |
| 20260509071525 | 59 | 336 | 17.0 | 33.0 | 0.00 | 0.27 | 0.00 | 81 | 998.3 |
| 20260509070019 | 59 | 351 | 24.0 | 34.0 | 0.00 | 0.27 | 0.00 | 81 | 998.0 |
| 20260509063046 | 59 | 11 | 19.0 | 34.0 | 0.00 | 0.34 | 0.00 | 81 | 998.2 |
| 20260509061509 | 59 | 352 | 21.0 | 39.0 | 0.00 | 0.34 | 0.00 | 81 | 998.1 |
| 20260509060057 | 59 | 352 | 17.0 | 33.0 | 0.00 | 0.34 | 0.00 | 81 | 997.8 |
| 20260509054525 | 59 | 355 | 20.0 | 32.0 | 0.00 | 0.34 | 0.00 | 81 | 997.8 |
| 20260509051601 | 60 | 9 | 18.0 | 28.0 | 0.00 | 0.34 | 0.00 | 80 | 998.2 |
| 20260509050011 | 60 | 19 | 14.0 | 24.0 | 0.00 | 0.34 | 0.00 | 80 | 998.1 |
| 20260509044548 | 60 | 18 | 18.0 | 27.0 | 0.00 | 0.34 | 0.00 | 80 | 998.2 |
| 20260509043046 | 61 | 31 | 18.0 | 32.0 | 0.00 | 0.34 | 0.00 | 80 | 998.2 |
| 20260509041527 | 60 | 350 | 17.0 | 35.0 | 0.00 | 0.34 | 0.00 | 82 | 998.2 |
| 20260509040014 | 61 | 2 | 20.0 | 35.0 | 0.00 | 0.34 | 0.00 | 80 | 997.9 |
| 20260509034546 | 61 | 14 | 20.0 | 37.0 | 0.00 | 0.34 | 0.00 | 80 | 997.9 |
| 20260509033025 | 61 | 356 | 21.0 | 35.0 | 0.00 | 0.34 | 0.00 | 81 | 998.1 |
| 20260509031547 | 61 | 31 | 21.0 | 33.0 | 0.00 | 0.34 | 0.00 | 83 | 998.0 |
| 20260509030032 | 61 | 4 | 15.0 | 24.0 | 0.00 | 0.34 | 0.00 | 83 | 997.8 |
| 20260509024600 | 61 | 349 | 20.0 | 29.0 | 0.00 | 0.34 | 0.00 | 84 | 997.9 |
| 20260509023004 | 61 | 9 | 18.0 | 31.0 | 0.00 | 0.34 | 0.00 | 84 | 997.7 |
| 20260509021534 | 61 | 23 | 21.0 | 31.0 | 0.00 | 0.34 | 0.00 | 85 | 997.9 |
| 20260509014550 | 61 | 22 | 13.0 | 34.0 | 0.00 | 0.34 | 0.00 | 86 | 998.3 |
| 20260509014538 | 61 | 349 | 13.0 | 34.0 | 0.00 | 0.34 | 0.00 | 86 | 998.3 |
| 20260509013100 | 61 | 14 | 26.0 | 36.0 | 0.00 | 0.34 | 0.00 | 85 | 997.6 |
| 20260509011523 | 61 | 353 | 23.0 | 47.0 | 0.00 | 0.34 | 0.00 | 85 | 997.9 |
| 20260509010010 | 61 | 14 | 25.0 | 36.0 | 0.00 | 0.34 | 0.00 | 86 | 997.9 |
| 20260509004539 | 61 | 359 | 22.0 | 34.0 | 0.00 | 0.34 | 0.00 | 85 | 998.3 |
| 20260509003044 | 61 | 24 | 20.0 | 33.0 | 0.00 | 0.34 | 0.00 | 86 | 998.4 |
| 20260509001528 | 61 | 10 | 25.0 | 34.0 | 0.00 | 0.34 | 0.00 | 86 | 998.3 |
| 20260509000048 | 62 | 22 | 20.0 | 30.0 | 0.00 | 0.34 | 0.00 | 85 | 998.6 |
| 20260508234535 | 61 | 338 | 22.0 | 31.0 | 0.00 | 0.34 | 0.00 | 86 | 998.6 |
| 20260508233012 | 61 | 359 | 21.0 | 36.0 | 0.00 | 0.34 | 0.00 | 86 | 998.7 |
| 20260508231530 | 61 | 2 | 28.0 | 39.0 | 0.00 | 0.34 | 0.00 | 85 | 998.6 |
| 20260508230020 | 60 | 357 | 27.0 | 38.0 | 0.00 | 0.34 | 0.00 | 86 | 998.7 |
| 20260508224542 | 61 | 19 | 25.0 | 37.0 | 0.00 | 0.34 | 0.00 | 84 | 998.8 |
| 20260508223022 | 62 | 351 | 23.0 | 40.0 | 0.00 | 0.34 | 0.00 | 83 | 999.0 |
| 20260508221536 | 61 | 344 | 19.0 | 36.0 | 0.00 | 0.34 | 0.00 | 84 | 999.2 |
| 20260508220055 | 62 | 336 | 24.0 | 43.0 | 0.00 | 0.34 | 0.00 | 82 | 999.4 |
| 20260508214539 | 61 | 356 | 27.0 | 39.0 | 0.00 | 0.34 | 0.00 | 82 | 999.4 |
| 20260508213055 | 61 | 350 | 20.0 | 34.0 | 0.00 | 0.34 | 0.00 | 83 | 999.6 |
| 20260508211534 | 61 | 349 | 19.0 | 30.0 | 0.00 | 0.34 | 0.00 | 82 | 999.8 |
| 20260508210015 | 62 | 356 | 21.0 | 35.0 | 0.00 | 0.34 | 0.00 | 81 | 999.9 |